sat.trackr.live / text

‹ back to catalog

STARLINK-34954

NORAD 65275 · 2025-184C

PAYLOAD ACTIVE UNKNOWN

§ Identity

Operator
Country
US
Launch date
2025-08-22
Launch site
AFWTR
Launch vehicle
Mass (kg)
RCS (m²)

Purposes: comms

External: N2YO · Heavens-Above · Gunter

§ Orbital elements

Epoch: 2026-05-25T02:28:08.948640Z

Period
95.64 min
Inclination
97.4527°
Eccentricity
0.0001474
Mean motion
15.05641694 rev/d
Perigee alt
548.5 km
Apogee alt
550.6 km
Semi-major
6,927.7 km
B*
-4.1980e-5
RAAN
197.5353°
Arg perigee
157.2784°
Mean anomaly
202.8508°
Rev number
4,279

§ Raw data

STARLINK-349541 65275U 25184C   26145.10288135 -.00000664  00000+0 -41980-4 0  99942 65275  97.4527 197.5353 0001474 157.2784 202.8508 15.05641694 42792

JSON: /api/v1/satellites/65275 · /tle

For live sub-satellite position, see the globe view (requires WebGL).

§ Visibility from observer

Set your observer location to see the next 7 days of passes ≥ 10°. The values pass through the URL so the page stays shareable.

No JS? Fill the form by hand. The geolocation button needs JavaScript.